Colorado Springs, CO

12:09 AM MST on December 13, 2017 (GMT -0700)
City Of Colorado Springs Municipal

Weather History for KCOS - January, 2013

Change the Weather History Date:

Tuesday, January 22, 2013

  Actual Average Record
Temperature  
Mean Temperature 46 °F 31 °F  
Max Temperature 65 °F 43 °F 70 °F (1943)
Min Temperature 26 °F 18 °F -10 °F (1917)
Degree Days  
Heating Degree Days 19 34  
Month to date heating degree days 819 758  
Since 1 July heating degree days 3103 3330  
Cooling Degree Days 0 0  
Month to date cooling degree days 0 0  
Year to date cooling degree days 0 0  
Moisture  
Dew Point -15 °F    
Average Humidity 13    
Maximum Humidity 23    
Minimum Humidity 2    
Precipitation  
Precipitation 0.00 in 0.01 in 0.07 in (1977)
Month to date precipitation 0.01 0.22  
Year to date precipitation 0.01 0.22  
Snow  
Snow 0.00 in 0.20 in 1.60 in (1985)
Month to date snowfall 0.4 3.9  
Since 1 July snowfall 6.7 17.4  
Snow Depth 0.00 in    
Sea Level Pressure  
Sea Level Pressure 30.13 in    
Wind  
Wind Speed 9 mph (North)    
Max Wind Speed 24 mph    
Max Gust Speed 31 mph    
Visibility 10 miles    
Events      
T = Trace of Precipitation, MM = Missing Value Source: NWS Daily Summary

Daily Weather History Graph

Daily Weather History Graph

Search for Another Location

Airport or City:

Trip Planner

Search our weather history database for the weather conditions in past years. The results will help you decide how hot, cold, wet, or windy it might be!

Date:

Astronomy

Jan. 22, 2013 Rise Set
Actual Time 7:12 AM MST 5:09 PM MST
Civil Twilight 6:43 AM MST 5:37 PM MST
Nautical Twilight 6:11 AM MST 6:10 PM MST
Astronomical Twilight 5:39 AM MST 6:42 PM MST
Moon 1:34 PM MST (1/22) 3:35 AM MST (1/22)
Length of Visible Light 10h 54m
Length of Day
9h 57m
Waxing Gibbous, 83% of the Moon is Illuminated
Jan 22
Waxing Gibbous
Jan 26
Full
Feb 3
Last Quarter
Feb 10
New
Feb 17
First Quarter

Hourly Weather History & Observations

Time (MST) Temp. Windchill Dew Point Humidity Pressure Visibility Wind Dir Wind Speed Gust Speed Precip Events Conditions
12:54 AM 28.9 °F 22.8 °F -5.1 °F 23% 30.14 in 10.0 mi North 5.8 mph - N/A   Clear
1:54 AM 34.0 °F 31.0 °F -7.1 °F 17% 30.11 in 10.0 mi NW 3.5 mph - N/A   Clear
2:54 AM 30.0 °F 23.2 °F -8.0 °F 19% 30.11 in 10.0 mi North 6.9 mph - N/A   Partly Cloudy
3:54 AM 32.0 °F 25.6 °F -9.9 °F 16% 30.08 in 10.0 mi NNW 6.9 mph - N/A   Clear
4:54 AM 30.9 °F 21.2 °F -11.0 °F 16% 30.09 in 10.0 mi NNE 12.7 mph - N/A   Clear
5:54 AM 30.0 °F 21.1 °F -11.9 °F 16% 30.13 in 10.0 mi NNE 10.4 mph - N/A   Clear
6:54 AM 34.0 °F 25.0 °F -13.0 °F 13% 30.14 in 10.0 mi North 12.7 mph - N/A   Partly Cloudy
7:54 AM 37.9 °F 30.0 °F -13.0 °F 11% 30.18 in 10.0 mi North 12.7 mph - N/A   Partly Cloudy
8:54 AM 50.0 °F - -14.1 °F 7% 30.17 in 10.0 mi North 11.5 mph - N/A   Partly Cloudy
9:54 AM 57.9 °F - -17.0 °F 4% 30.12 in 10.0 mi North 6.9 mph - N/A   Partly Cloudy
10:54 AM 60.1 °F - -16.1 °F 4% 30.08 in 10.0 mi SW 10.4 mph - N/A   Clear
11:54 AM 61.0 °F - -25.1 °F 4% 30.05 in 10.0 mi South 4.6 mph - N/A   Clear
12:54 PM 64.0 °F - -27.0 °F 4% 30.04 in 10.0 mi NW 9.2 mph - N/A   Clear
1:54 PM 64.9 °F - -25.1 °F 4% 30.01 in 10.0 mi WNW 18.4 mph 26.5 mph N/A   Clear
2:54 PM 64.0 °F - -22.0 °F 4% 30.05 in 10.0 mi West 20.7 mph - N/A   Clear
3:54 PM 63.0 °F - -29.0 °F 4% 30.04 in 10.0 mi WNW 21.9 mph 29.9 mph N/A   Clear
4:54 PM 50.0 °F - -14.1 °F 7% 30.13 in 10.0 mi ESE 11.5 mph - N/A   Clear
5:54 PM 46.9 °F - -9.9 °F 9% 30.18 in 10.0 mi East 10.4 mph - N/A   Clear
6:54 PM 34.0 °F 28.0 °F -11.9 °F 14% 30.25 in 10.0 mi NNE 6.9 mph - N/A   Clear
7:54 PM 34.0 °F - -11.0 °F 14% 30.25 in 10.0 mi Calm Calm - N/A   Clear
8:54 PM 30.0 °F 22.4 °F -11.9 °F 16% 30.22 in 10.0 mi North 8.1 mph - N/A   Clear
9:54 PM 30.0 °F 24.1 °F -11.0 °F 17% 30.19 in 10.0 mi North 5.8 mph - N/A   Clear
10:54 PM 28.9 °F 21.9 °F -11.0 °F 17% 30.18 in 10.0 mi North 6.9 mph - N/A   Clear
11:54 PM 30.0 °F - -14.1 °F 14% 30.17 in 10.0 mi Calm Calm - N/A   Clear